DW8394 Gloucester UK current weather conditions

sailwx.info

Wind from 209 at 3 knots gusting 10

Air temperature 23.3° C
Dewpoint 14.3° C

Last reported at 2019-Sep-22 09:04 UTC.
Time now 2019-Sep-22 09:56 UTC

Location: N 51°51' W 002°12'.
View on Google Maps.

See reports from other nearby stations

  
Tides and Currents Weather Stations Pressure Air Temp Water Temp Dewpoint Dewpoint Depression Visibility Wind Speed Wind Dir Waves Ship Positions
date/time (UTC)wind fromknots sea level pressurealtimeterstation pressurevisibilityair tempwater tempwave heightnotes
2019-Sep-22 09:04 209 3 gusting 10 23.3
2019-Sep-22 09:00 235 3 gusting 7 23.3
2019-Sep-22 08:52 206 2 gusting 6 23.3
2019-Sep-22 08:48 206 2 gusting 6 23.3
2019-Sep-22 08:44 208 2 gusting 10 23.3
2019-Sep-22 08:40 208 2 gusting 5 23.3
2019-Sep-22 08:32 167 2 gusting 9 23.3
2019-Sep-22 08:28 178 1 gusting 6 23.3
2019-Sep-22 08:24 195 1 gusting 8 23.3
2019-Sep-22 08:20 179 0 gusting 5 23.3
2019-Sep-22 08:12 160 1 gusting 6 23.3
2019-Sep-22 08:08 173 1 gusting 5 23.3
2019-Sep-22 08:04 176 0 gusting 8 23.3
2019-Sep-22 08:00 201 0 gusting 5 23.3
2019-Sep-22 07:52 156 1 gusting 6 23.3
2019-Sep-22 07:48 148 0 gusting 4 23.3
2019-Sep-22 07:44 141 1 gusting 6 23.3
2019-Sep-22 07:40 152 0 gusting 6 23.3
2019-Sep-22 07:32 145 0 gusting 5 23.3
2019-Sep-22 07:28 146 0 gusting 3 23.3
2019-Sep-22 07:24 136 0 gusting 5 23.3
2019-Sep-22 07:20 130 0 gusting 4 23.3
2019-Sep-22 07:12 137 0 gusting 6 23.3
2019-Sep-22 07:08 125 0 gusting 5 23.3
2019-Sep-22 07:04 125 0 gusting 6 23.3
2019-Sep-22 07:00 135 0 gusting 4 23.3
2019-Sep-22 06:52 133 23.3
2019-Sep-22 06:48 137 23.3
2019-Sep-22 06:44 108 23.3
2019-Sep-22 06:40 159 23.3
2019-Sep-22 06:32 247 23.3
2019-Sep-22 06:28 289 23.3
2019-Sep-22 06:24 126 23.3
2019-Sep-22 06:20 096 23.3
2019-Sep-22 06:12 067 0 gusting 2 23.3
2019-Sep-22 06:08 055 0 gusting 3 23.3
2019-Sep-22 06:04 333 23.3
2019-Sep-22 06:00 287 23.3
2019-Sep-22 05:52 298 23.3
2019-Sep-22 05:48 251 23.3
2019-Sep-22 05:44 151 23.3
2019-Sep-22 05:40 149 23.3
2019-Sep-22 05:32 135 23.3
2019-Sep-22 05:28 090 0 gusting 3 23.3
2019-Sep-22 05:24 105 0 gusting 3 23.3
2019-Sep-22 05:20 101 0 gusting 4 23.3
2019-Sep-22 05:12 088 2 gusting 6 23.9
2019-Sep-22 05:08 089 2 gusting 5 23.9
2019-Sep-22 05:04 090 2 gusting 5 23.9
2019-Sep-22 05:00 091 1 gusting 5 23.9
2019-Sep-22 04:52 086 1 gusting 4 23.9
2019-Sep-22 04:48 085 0 gusting 3 23.9
2019-Sep-22 04:44 077 0 gusting 3 23.9
2019-Sep-22 04:40 081 0 gusting 4 23.9
2019-Sep-22 04:32 082 1 gusting 4 23.9
2019-Sep-22 04:28 092 1 gusting 4 23.9
2019-Sep-22 04:24 105 1 gusting 5 23.9
2019-Sep-22 04:20 108 1 gusting 6 23.9
2019-Sep-22 04:12 093 1 gusting 4 23.9
2019-Sep-22 04:08 094 0 gusting 4 23.9
2019-Sep-22 04:04 060 23.9
2019-Sep-22 04:00 024 23.9
2019-Sep-22 03:52 054 0 gusting 0 23.9
2019-Sep-22 03:48 084 0 gusting 6 23.9
2019-Sep-22 03:44 064 0 gusting 5 23.9
2019-Sep-22 03:40 022 0 gusting 2 23.9
2019-Sep-22 03:32 074 23.9
2019-Sep-22 03:28 074 23.9
2019-Sep-22 03:24 089 23.9
2019-Sep-22 03:20 168 0 gusting 2 23.9
2019-Sep-22 03:12 148 0 gusting 3 23.9
2019-Sep-22 03:08 173 1 gusting 10 23.9
2019-Sep-22 03:04 188 0 gusting 5 23.9
2019-Sep-22 03:00 220 0 gusting 4 23.9
2019-Sep-22 02:52 223 0 gusting 5 23.9
2019-Sep-22 02:48 158 1 gusting 5 23.9
2019-Sep-22 02:44 168 1 gusting 8 23.9
2019-Sep-22 02:40 192 1 gusting 6 23.9
2019-Sep-22 02:32 169 1 gusting 6 24.4
2019-Sep-22 02:28 175 1 gusting 7 24.4
2019-Sep-22 02:24 148 0 gusting 4 24.4
2019-Sep-22 02:20 115 0 gusting 5 24.4
2019-Sep-22 02:12 145 0 gusting 5 24.4
2019-Sep-22 02:08 124 0 gusting 2 24.4
2019-Sep-22 02:04 137 0 gusting 6 24.4
2019-Sep-22 02:00 149 1 gusting 4 24.4
2019-Sep-22 01:52 127 1 gusting 8 24.4
2019-Sep-22 01:48 126 1 gusting 5 24.4
2019-Sep-22 01:44 132 2 gusting 6 24.4
2019-Sep-22 01:40 132 2 gusting 8 24.4
2019-Sep-22 01:32 135 1 gusting 8 24.4
2019-Sep-22 01:28 122 1 gusting 8 24.4
2019-Sep-22 01:24 131 1 gusting 6 24.4
2019-Sep-22 01:20 138 2 gusting 8 24.4
2019-Sep-22 01:12 134 1 gusting 10 24.4
2019-Sep-22 01:08 146 1 gusting 6 24.4
2019-Sep-22 01:04 135 1 gusting 6 24.4
2019-Sep-22 01:00 136 1 gusting 6 24.4
2019-Sep-22 00:52 156 1 gusting 6 24.4
2019-Sep-22 00:48 126 1 gusting 5 24.4
2019-Sep-22 00:44 125 1 gusting 8 24.4
2019-Sep-22 00:40 121 1 gusting 6 24.4
2019-Sep-22 00:32 135 1 gusting 7 24.4
2019-Sep-22 00:28 124 1 gusting 6 24.4
2019-Sep-22 00:24 144 1 gusting 6 24.4
2019-Sep-22 00:20 132 2 gusting 8 24.4
2019-Sep-22 00:12 126 2 gusting 8 24.4
2019-Sep-22 00:08 128 2 gusting 7 24.4
2019-Sep-22 00:04 126 2 gusting 9 24.4
2019-Sep-22 00:00 131 2 gusting 9 24.4
2019-Sep-21 23:52 124 2 gusting 6 24.4
2019-Sep-21 23:48 144 2 gusting 9 24.4
2019-Sep-21 23:44 146 2 gusting 7 24.4
2019-Sep-21 23:40 136 2 gusting 10 25.0
2019-Sep-21 23:32 147 1 gusting 11 25.0
2019-Sep-21 23:28 141 1 gusting 7 25.0
2019-Sep-21 23:24 149 1 gusting 5 25.0
2019-Sep-21 23:20 140 1 gusting 6 25.0
2019-Sep-21 23:12 138 1 gusting 6 25.0
2019-Sep-21 23:08 132 1 gusting 6 25.0
2019-Sep-21 23:04 134 1 gusting 8 25.0
2019-Sep-21 23:00 151 1 gusting 5 25.0
2019-Sep-21 22:52 140 1 gusting 10 25.0
2019-Sep-21 22:48 146 1 gusting 6 25.0
2019-Sep-21 22:44 139 1 gusting 9 25.0
2019-Sep-21 22:40 147 1 gusting 7 25.0
2019-Sep-21 22:32 135 1 gusting 6 25.0
2019-Sep-21 22:28 153 1 gusting 7 25.0
2019-Sep-21 22:24 135 1 gusting 9 25.0
2019-Sep-21 22:20 133 1 gusting 6 25.0
2019-Sep-21 22:12 139 1 gusting 10 25.6
2019-Sep-21 22:08 151 1 gusting 6 25.6
2019-Sep-21 22:04 133 1 gusting 7 25.6
2019-Sep-21 22:00 132 0 gusting 5 25.6
2019-Sep-21 21:52 137 1 gusting 7 25.6
2019-Sep-21 21:48 124 1 gusting 6 25.6
2019-Sep-21 21:44 153 1 gusting 4 25.6
2019-Sep-21 21:40 139 1 gusting 7 25.6
2019-Sep-21 21:32 109 1 gusting 7 25.6
2019-Sep-21 21:28 131 1 gusting 6 25.6
2019-Sep-21 21:24 127 1 gusting 10 25.6
2019-Sep-21 21:20 130 1 gusting 8 25.6
2019-Sep-21 21:12 117 1 gusting 6 25.6
2019-Sep-21 21:08 118 1 gusting 5 25.6
2019-Sep-21 21:04 125 2 gusting 7 25.6
2019-Sep-21 21:00 133 2 gusting 9 25.6
2019-Sep-21 20:52 133 2 gusting 12 25.6
2019-Sep-21 20:48 128 2 gusting 8 25.6
2019-Sep-21 20:44 124 3 gusting 11 25.6
2019-Sep-21 20:40 132 3 gusting 10 25.6
2019-Sep-21 20:32 118 1 gusting 11 25.6
2019-Sep-21 20:28 135 1 gusting 8 26.1
2019-Sep-21 20:24 127 2 gusting 8 26.1
2019-Sep-21 20:20 123 2 gusting 8 26.1
2019-Sep-21 20:12 119 2 gusting 8 26.1
2019-Sep-21 20:08 121 2 gusting 9 26.1
2019-Sep-21 20:04 127 2 gusting 12 26.1
2019-Sep-21 20:00 126 2 gusting 12 26.1
2019-Sep-21 19:52 140 2 gusting 7 26.1
2019-Sep-21 19:48 125 2 gusting 9 26.1
2019-Sep-21 19:44 140 2 gusting 7 26.1
2019-Sep-21 19:40 128 1 gusting 8 26.1
2019-Sep-21 19:32 126 1 gusting 6 26.1
2019-Sep-21 19:28 113 0 gusting 5 26.1
2019-Sep-21 19:24 111 0 gusting 7 26.1
2019-Sep-21 19:20 126 1 gusting 5 26.1
2019-Sep-21 19:12 134 0 gusting 3 26.1
2019-Sep-21 19:08 125 0 gusting 2 26.1
2019-Sep-21 19:04 155 0 gusting 4 26.7
2019-Sep-21 19:00 157 0 gusting 6 26.7
2019-Sep-21 18:52 152 1 gusting 6 26.7
2019-Sep-21 18:48 153 1 gusting 7 26.7
2019-Sep-21 18:44 146 0 gusting 4 26.7
2019-Sep-21 18:40 184 1 gusting 6 26.7
2019-Sep-21 18:32 146 1 gusting 6 26.7
2019-Sep-21 18:28 134 1 gusting 7 26.7
2019-Sep-21 18:24 140 1 gusting 7 26.7
2019-Sep-21 18:20 135 0 gusting 6 26.7
2019-Sep-21 18:12 148 0 gusting 2 27.2
2019-Sep-21 18:08 138 0 gusting 4 27.2
2019-Sep-21 18:04 141 1 gusting 5 27.2
2019-Sep-21 18:00 139 1 gusting 6 27.2
2019-Sep-21 17:52 130 2 gusting 6 27.2
2019-Sep-21 17:48 132 2 gusting 9 27.2
2019-Sep-21 17:44 125 1 gusting 6 27.2
2019-Sep-21 17:40 112 0 gusting 5 27.2
2019-Sep-21 17:32 120 0 gusting 2 27.2
2019-Sep-21 17:28 124 1 gusting 6 27.2
2019-Sep-21 17:24 130 1 gusting 8 27.2
2019-Sep-21 17:20 139 0 gusting 3 27.2
2019-Sep-21 17:12 099 1 gusting 7 27.2
2019-Sep-21 17:08 145 2 gusting 7 27.2
2019-Sep-21 17:04 148 1 gusting 7 27.2
2019-Sep-21 17:00 136 1 gusting 5 27.2
2019-Sep-21 16:52 142 2 gusting 9 27.2
2019-Sep-21 16:48 154 2 gusting 9 27.2
2019-Sep-21 16:44 142 1 gusting 12 27.2
2019-Sep-21 16:40 145 2 gusting 7 27.2
2019-Sep-21 16:32 127 1 gusting 6 26.7
2019-Sep-21 16:28 131 1 gusting 6 26.7
2019-Sep-21 16:24 130 1 gusting 6 26.7
2019-Sep-21 16:20 138 1 gusting 6 26.7
2019-Sep-21 16:12 155 1 gusting 8 26.7
2019-Sep-21 16:08 144 2 gusting 9 26.7
2019-Sep-21 16:04 137 2 gusting 5 26.1
2019-Sep-21 16:00 125 3 gusting 9 26.1
2019-Sep-21 15:52 156 1 gusting 7 26.1
2019-Sep-21 15:48 132 1 gusting 6 25.6
2019-Sep-21 15:44 133 1 gusting 6 25.6
2019-Sep-21 15:40 130 1 gusting 8 25.6
2019-Sep-21 15:32 137 2 gusting 8 25.0
2019-Sep-21 15:28 136 2 gusting 11 25.0
2019-Sep-21 15:24 132 1 gusting 7 24.4
2019-Sep-21 15:20 141 1 gusting 6 24.4
2019-Sep-21 15:12 174 1 gusting 9 23.9
2019-Sep-21 15:08 146 1 gusting 6 23.9
2019-Sep-21 15:04 135 1 gusting 4 23.9
2019-Sep-21 15:00 114 2 gusting 9 23.3
2019-Sep-21 14:52 135 3 gusting 9 23.3
2019-Sep-21 14:48 122 3 gusting 11 23.3
2019-Sep-21 14:44 131 3 gusting 10 23.3
2019-Sep-21 14:40 149 2 gusting 9 23.3
2019-Sep-21 14:32 157 1 gusting 8 22.8
2019-Sep-21 14:28 133 1 gusting 8 22.8
2019-Sep-21 14:24 137 1 gusting 6 22.8
2019-Sep-21 14:20 156 2 gusting 6 22.8
2019-Sep-21 14:12 114 2 gusting 7 22.2
2019-Sep-21 14:08 102 2 gusting 11 22.2
2019-Sep-21 14:04 111 2 gusting 7 22.2
2019-Sep-21 14:00 106 2 gusting 11 22.2
2019-Sep-21 13:52 132 1 gusting 8 21.7
2019-Sep-21 13:48 130 1 gusting 6 21.7
2019-Sep-21 13:44 131 2 gusting 6 21.7
2019-Sep-21 13:40 109 2 gusting 10 21.7
2019-Sep-21 13:32 177 1 gusting 5 21.1
2019-Sep-21 13:28 112 2 gusting 8 21.1
2019-Sep-21 13:24 104 2 gusting 10 21.1
2019-Sep-21 13:20 108 1 gusting 9 20.6
2019-Sep-21 13:12 149 1 gusting 4 20.6
2019-Sep-21 13:08 133 2 gusting 7 20.6
2019-Sep-21 13:04 108 3 gusting 7 20.6
2019-Sep-21 13:00 134 2 gusting 10 20.0
2019-Sep-21 12:52 110 1 gusting 7 20.0
2019-Sep-21 12:48 117 2 gusting 6 20.0
2019-Sep-21 12:44 113 2 gusting 7 19.4
2019-Sep-21 12:40 138 2 gusting 13 19.4
2019-Sep-21 12:32 123 2 gusting 11 19.4
2019-Sep-21 12:28 107 1 gusting 7 19.4
2019-Sep-21 12:24 101 1 gusting 7 18.9
2019-Sep-21 12:20 185 1 gusting 6 18.9
2019-Sep-21 12:12 127 2 gusting 9 18.9
2019-Sep-21 12:08 111 2 gusting 7 18.9
2019-Sep-21 12:04 102 3 gusting 8 18.3
2019-Sep-21 12:00 099 3 gusting 11 18.3
2019-Sep-21 11:52 116 2 gusting 10 18.3
2019-Sep-21 11:48 121 2 gusting 8 18.3
2019-Sep-21 11:44 113 2 gusting 9 18.3
2019-Sep-21 11:40 123 2 gusting 10 17.8
2019-Sep-21 11:32 116 3 gusting 11 17.8
2019-Sep-21 11:28 119 2 gusting 11 17.8
2019-Sep-21 11:24 123 2 gusting 13 17.8
2019-Sep-21 11:20 130 2 gusting 9 17.8
2019-Sep-21 11:12 117 2 gusting 7 17.2
2019-Sep-21 11:08 141 1 gusting 6 17.2
2019-Sep-21 11:04 112 2 gusting 13 17.2
2019-Sep-21 11:00 124 1 gusting 6 17.2
2019-Sep-21 10:52 093 0 gusting 5 17.2
2019-Sep-21 10:48 119 0 gusting 3 17.2
2019-Sep-21 10:44 113 1 gusting 4 17.2
2019-Sep-21 10:40 090 1 gusting 5 17.2
2019-Sep-21 10:32 105 1 gusting 4 16.7
2019-Sep-21 10:28 112 0 gusting 6 16.7
2019-Sep-21 10:24 106 0 gusting 5 16.7
2019-Sep-21 10:20 145 0 gusting 3 16.7
2019-Sep-21 10:12 085 0 gusting 4 16.7
2019-Sep-21 10:08 101 1 gusting 4 16.7
2019-Sep-21 10:04 093 1 gusting 5 16.7
2019-Sep-21 10:00 083 1 gusting 6 16.7
2019-Sep-21 09:52 090 0 gusting 6 16.7
2019-Sep-21 09:48 090 0 gusting 4 16.7
2019-Sep-21 09:44 104 0 gusting 4 16.7
2019-Sep-21 09:40 083 0 gusting 3 16.7
2019-Sep-21 09:32 083 0 gusting 4 16.7
2019-Sep-21 09:28 134 16.7
2019-Sep-21 09:24 324 0 gusting 1 16.7
2019-Sep-21 09:20 035 0 gusting 2 16.7
2019-Sep-21 09:12 075 0 gusting 0 16.7
2019-Sep-21 09:08 095 0 gusting 2 16.7
2019-Sep-21 09:04 069 0 gusting 2 16.7
2019-Sep-21 09:00 124 0 gusting 3 16.7
2019-Sep-21 08:52 098 0 gusting 2 16.7
2019-Sep-21 08:48 076 16.7
2019-Sep-21 08:44 092 16.7
2019-Sep-21 08:40 098 16.7
2019-Sep-21 08:32 056 0 gusting 3 16.7
2019-Sep-21 08:28 098 0 gusting 4 16.7
2019-Sep-21 08:24 032 16.7
2019-Sep-21 08:20 070 16.7
2019-Sep-21 08:12 075 0 gusting 4 16.7
2019-Sep-21 08:08 071 16.7
2019-Sep-21 08:04 046 0 gusting 1 16.7
2019-Sep-21 08:00 073 0 gusting 4 16.7
2019-Sep-21 07:52 084 0 gusting 3 16.7
2019-Sep-21 07:48 075 1 gusting 3 16.7
2019-Sep-21 07:44 085 0 gusting 3 16.7
2019-Sep-21 07:40 080 0 gusting 3 16.7
2019-Sep-21 07:32 069 0 gusting 1 16.7
2019-Sep-21 07:28 094 0 gusting 2 16.7
2019-Sep-21 07:24 082 1 gusting 4 16.7
2019-Sep-21 07:20 078 1 gusting 3 16.7
2019-Sep-21 07:12 079 1 gusting 4 16.7
2019-Sep-21 07:08 084 1 gusting 5 16.7
2019-Sep-21 07:04 078 1 gusting 4 16.7
2019-Sep-21 07:00 078 0 gusting 3 16.7
2019-Sep-21 06:52 069 1 gusting 5 16.7
2019-Sep-21 06:48 073 0 gusting 4 16.7
2019-Sep-21 06:44 066 0 gusting 3 16.7
2019-Sep-21 06:40 087 16.7
2019-Sep-21 06:32 055 16.7
2019-Sep-21 06:28 039 16.7
2019-Sep-21 06:24 040 16.7
2019-Sep-21 06:20 081 16.7
2019-Sep-21 06:12 138 1 gusting 3 16.7
2019-Sep-21 06:08 127 1 gusting 6 16.7
2019-Sep-21 06:04 155 0 gusting 6 16.7
2019-Sep-21 06:00 125 0 gusting 2 16.7
2019-Sep-21 05:52 149 0 gusting 3 16.7
2019-Sep-21 05:48 179 0 gusting 4 16.7
2019-Sep-21 05:44 142 0 gusting 5 16.7
2019-Sep-21 05:40 114 0 gusting 6 16.7
2019-Sep-21 05:32 131 1 gusting 5 17.2
2019-Sep-21 05:28 124 0 gusting 6 17.2
2019-Sep-21 05:24 129 0 gusting 6 17.2
2019-Sep-21 05:20 148 0 gusting 3 17.2
2019-Sep-21 05:12 133 1 gusting 7 17.2
2019-Sep-21 05:08 132 1 gusting 3 17.2
2019-Sep-21 05:04 163 1 gusting 7 17.2
2019-Sep-21 05:00 130 1 gusting 8 17.2
2019-Sep-21 04:52 129 1 gusting 9 17.2
2019-Sep-21 04:48 135 1 gusting 6 17.2
2019-Sep-21 04:44 127 0 gusting 4 17.2
2019-Sep-21 04:40 125 0 gusting 6 17.2
2019-Sep-21 04:32 151 0 gusting 3 17.2
2019-Sep-21 04:28 191 1 gusting 7 17.2
2019-Sep-21 04:24 157 0 gusting 5 17.2
2019-Sep-21 04:20 109 0 gusting 5 17.2
2019-Sep-21 04:12 123 1 gusting 8 17.2
2019-Sep-21 04:08 149 1 gusting 7 17.2
2019-Sep-21 04:04 123 1 gusting 7 17.2
2019-Sep-21 04:00 133 0 gusting 4 17.2
2019-Sep-21 03:52 128 1 gusting 6 17.8
2019-Sep-21 03:48 117 1 gusting 7 17.8
2019-Sep-21 03:44 130 1 gusting 6 17.8
2019-Sep-21 03:40 110 2 gusting 6 17.8
2019-Sep-21 03:32 110 2 gusting 8 17.8
2019-Sep-21 03:28 102 2 gusting 11 17.8
2019-Sep-21 03:24 106 1 gusting 8 17.8
2019-Sep-21 03:20 122 1 gusting 9 17.8
2019-Sep-21 03:12 107 2 gusting 8 17.8
2019-Sep-21 03:08 110 1 gusting 6 17.8
2019-Sep-21 03:04 092 2 gusting 8 17.8
2019-Sep-21 03:00 098 2 gusting 9 17.8
2019-Sep-21 02:52 085 1 gusting 6 17.8
2019-Sep-21 02:48 099 1 gusting 8 17.8
2019-Sep-21 02:44 112 1 gusting 6 17.8
2019-Sep-21 02:40 111 2 gusting 6 17.8
2019-Sep-21 02:32 111 1 gusting 5 17.8
2019-Sep-21 02:28 092 1 gusting 7 17.8
2019-Sep-21 02:24 100 1 gusting 6 17.8
2019-Sep-21 02:20 104 1 gusting 7 17.8
2019-Sep-21 02:12 109 2 gusting 6 17.8
2019-Sep-21 02:08 089 2 gusting 9 17.8
2019-Sep-21 02:04 111 1 gusting 9 18.3
2019-Sep-21 02:00 106 1 gusting 9 18.3
2019-Sep-21 01:52 114 2 gusting 10 18.3
2019-Sep-21 01:48 107 2 gusting 13 18.3
2019-Sep-21 01:44 115 2 gusting 9 18.3
2019-Sep-21 01:40 104 2 gusting 10 18.3
2019-Sep-21 01:32 107 2 gusting 7 18.3
2019-Sep-21 01:28 113 2 gusting 12 18.3
2019-Sep-21 01:24 105 2 gusting 9 18.3
2019-Sep-21 01:20 097 1 gusting 9 18.3
2019-Sep-21 01:12 122 3 gusting 6 18.3
2019-Sep-21 01:08 106 2 gusting 13 18.3
2019-Sep-21 01:04 119 1 gusting 11 18.3
2019-Sep-21 01:00 101 1 gusting 9 18.3
2019-Sep-21 00:52 102 2 gusting 6 18.3
2019-Sep-21 00:48 104 2 gusting 10 18.3
2019-Sep-21 00:44 104 3 gusting 11 18.3
2019-Sep-21 00:40 105 3 gusting 10 18.3
2019-Sep-21 00:32 111 2 gusting 11 18.9
2019-Sep-21 00:28 111 2 gusting 6 18.9
2019-Sep-21 00:24 108 2 gusting 8 18.9
2019-Sep-21 00:20 108 2 gusting 8 18.9
2019-Sep-21 00:12 101 2 gusting 6 18.9
2019-Sep-21 00:08 104 2 gusting 7 18.9
2019-Sep-21 00:04 106 2 gusting 13 18.9
2019-Sep-21 00:00 108 2 gusting 7 18.9
2019-Sep-20 23:52 099 1 gusting 7 18.9
2019-Sep-20 23:48 097 1 gusting 9 18.9
2019-Sep-20 23:44 092 1 gusting 6 18.9
2019-Sep-20 23:40 098 1 gusting 5 18.9
2019-Sep-20 23:32 093 3 gusting 6 19.4
2019-Sep-20 23:28 096 3 gusting 11 19.4
2019-Sep-20 23:24 097 3 gusting 13 19.4
2019-Sep-20 23:20 100 2 gusting 9 19.4
2019-Sep-20 23:12 105 2 gusting 6 19.4
2019-Sep-20 23:08 104 2 gusting 9 19.4
2019-Sep-20 23:04 100 3 gusting 7 19.4
2019-Sep-20 23:00 103 3 gusting 11 19.4
2019-Sep-20 22:52 106 3 gusting 10 19.4
2019-Sep-20 22:48 105 3 gusting 9 19.4
2019-Sep-20 22:44 100 3 gusting 8 19.4
2019-Sep-20 22:40 097 3 gusting 12 19.4
2019-Sep-20 22:32 107 2 gusting 6 19.4
2019-Sep-20 22:28 103 3 gusting 11 19.4
2019-Sep-20 22:24 102 3 gusting 9 20.0
2019-Sep-20 22:20 097 3 gusting 7 20.0
2019-Sep-20 22:12 103 3 gusting 9 20.0
2019-Sep-20 22:08 099 3 gusting 10 20.0
2019-Sep-20 22:04 100 3 gusting 11 20.0
2019-Sep-20 22:00 101 3 gusting 10 20.0
2019-Sep-20 21:52 096 3 gusting 10 20.0
2019-Sep-20 21:48 089 2 gusting 8 20.0
2019-Sep-20 21:44 092 2 gusting 7 20.6
2019-Sep-20 21:40 090 2 gusting 8 20.6
2019-Sep-20 21:32 095 2 gusting 8 20.6
2019-Sep-20 21:28 098 2 gusting 5 20.6
2019-Sep-20 21:24 099 2 gusting 7 20.6
2019-Sep-20 21:20 093 2 gusting 11 20.6
2019-Sep-20 21:12 094 2 gusting 5 20.6
2019-Sep-20 21:08 097 2 gusting 7 20.6
2019-Sep-20 21:04 093 2 gusting 7 20.6
2019-Sep-20 21:00 112 3 gusting 8 20.6
2019-Sep-20 20:52 102 3 gusting 12 21.1
2019-Sep-20 20:48 093 3 gusting 12 21.1
2019-Sep-20 20:44 094 3 gusting 11 21.1
2019-Sep-20 20:40 097 2 gusting 9 21.1
2019-Sep-20 20:32 099 2 gusting 8 21.1
2019-Sep-20 20:28 104 2 gusting 6 21.1
2019-Sep-20 20:24 111 2 gusting 6 21.1
2019-Sep-20 20:20 111 2 gusting 8 21.7
2019-Sep-20 20:12 111 3 gusting 10 21.7
2019-Sep-20 20:08 110 3 gusting 10 21.7
2019-Sep-20 20:04 104 3 gusting 10 21.7
2019-Sep-20 20:00 115 3 gusting 11 21.7
2019-Sep-20 19:52 110 3 gusting 10 21.7
2019-Sep-20 19:48 107 3 gusting 11 21.7
2019-Sep-20 19:44 111 3 gusting 12 21.7
2019-Sep-20 19:40 105 3 gusting 11 22.2
2019-Sep-20 19:32 112 2 gusting 9 22.2
2019-Sep-20 19:28 115 2 gusting 9 22.2
2019-Sep-20 19:24 109 2 gusting 7 22.2
2019-Sep-20 19:20 114 2 gusting 12 22.2
2019-Sep-20 19:12 113 4 gusting 13 22.2
2019-Sep-20 19:08 110 4 gusting 13 22.8
2019-Sep-20 19:04 110 4 gusting 13 22.8
2019-Sep-20 19:00 110 4 gusting 13 22.8
2019-Sep-20 18:52 112 3 gusting 12 22.8
2019-Sep-20 18:48 116 3 gusting 11 22.8
2019-Sep-20 18:44 115 3 gusting 8 23.3
2019-Sep-20 18:40 109 2 gusting 7 23.3
2019-Sep-20 18:32 110 2 gusting 6 23.3
2019-Sep-20 18:28 100 2 gusting 10 23.3
2019-Sep-20 18:24 108 1 gusting 6 23.3
2019-Sep-20 18:20 097 2 gusting 5 23.3
2019-Sep-20 18:12 110 2 gusting 8 23.3
2019-Sep-20 18:08 112 2 gusting 8 23.3
2019-Sep-20 18:04 116 2 gusting 10 23.3
2019-Sep-20 18:00 121 1 gusting 8 23.3
2019-Sep-20 17:52 102 2 gusting 9 23.9
2019-Sep-20 17:48 107 2 gusting 11 23.9
2019-Sep-20 17:44 104 2 gusting 6 23.9
2019-Sep-20 17:40 102 3 gusting 16 23.9
2019-Sep-20 17:32 114 2 gusting 11 23.9
2019-Sep-20 17:28 107 2 gusting 7 24.4
2019-Sep-20 17:24 092 2 gusting 10 23.9
2019-Sep-20 17:20 098 1 gusting 9 24.4
2019-Sep-20 17:12 111 2 gusting 10 24.4
2019-Sep-20 17:08 110 2 gusting 8 24.4
2019-Sep-20 17:04 107 2 gusting 12 24.4
2019-Sep-20 17:00 109 2 gusting 10 24.4
2019-Sep-20 16:52 115 3 gusting 10 24.4
2019-Sep-20 16:48 115 3 gusting 10 24.4
2019-Sep-20 16:44 100 3 gusting 7 24.4
2019-Sep-20 16:40 099 4 gusting 12 24.4
2019-Sep-20 16:32 093 3 gusting 8 23.9
2019-Sep-20 16:28 103 3 gusting 10 23.9
2019-Sep-20 16:24 103 3 gusting 10 23.9
2019-Sep-20 16:20 099 3 gusting 9 23.9
2019-Sep-20 16:12 099 3 gusting 9 23.3
2019-Sep-20 16:08 102 3 gusting 13 23.3
2019-Sep-20 16:04 095 2 gusting 9 23.3
2019-Sep-20 16:00 092 2 gusting 12 23.3
2019-Sep-20 15:52 117 2 gusting 10 23.3
2019-Sep-20 15:48 108 2 gusting 8 23.3
2019-Sep-20 15:44 116 2 gusting 8 23.3
2019-Sep-20 15:40 104 3 gusting 6 22.8
2019-Sep-20 15:32 122 3 gusting 10 22.8
2019-Sep-20 15:24 105 3 gusting 9 22.8
2019-Sep-20 15:20 117 3 gusting 9 22.8
2019-Sep-20 15:12 119 2 gusting 11 22.2
2019-Sep-20 15:08 105 2 gusting 8 22.2
2019-Sep-20 15:04 115 2 gusting 6 22.2
2019-Sep-20 15:00 109 2 gusting 9 22.2
2019-Sep-20 14:52 107 2 gusting 13 22.2
2019-Sep-20 14:48 112 2 gusting 8 21.7
2019-Sep-20 14:44 125 2 gusting 9 21.7
2019-Sep-20 14:40 112 2 gusting 10 21.7
2019-Sep-20 14:32 108 3 gusting 6 21.7
2019-Sep-20 14:28 106 4 gusting 13 21.7
2019-Sep-20 14:24 112 4 gusting 13 21.7
2019-Sep-20 14:20 113 4 gusting 11 21.7
2019-Sep-20 14:12 101 4 gusting 12 21.1
2019-Sep-20 14:08 109 3 gusting 8 21.1
2019-Sep-20 14:04 094 3 gusting 13 21.1
2019-Sep-20 14:00 115 3 gusting 9 21.1
2019-Sep-20 13:52 101 3 gusting 12 20.6
2019-Sep-20 13:48 089 2 gusting 12 20.6
2019-Sep-20 13:44 126 2 gusting 7 20.6
2019-Sep-20 13:40 088 2 gusting 12 20.6
2019-Sep-20 13:32 114 3 gusting 9 20.0
2019-Sep-20 13:28 139 3 gusting 8 20.0
2019-Sep-20 13:24 103 3 gusting 9 20.0
2019-Sep-20 13:20 087 3 gusting 11 20.0
2019-Sep-20 13:12 123 3 gusting 10 19.4
2019-Sep-20 13:08 112 3 gusting 9 19.4
2019-Sep-20 13:04 107 3 gusting 10 19.4
2019-Sep-20 13:00 106 2 gusting 10 19.4
2019-Sep-20 12:52 117 1 gusting 7 18.9
2019-Sep-20 12:48 122 2 gusting 7 18.9
2019-Sep-20 12:44 120 3 gusting 8 18.9
2019-Sep-20 12:40 130 3 gusting 10 18.9
2019-Sep-20 12:32 124 2 gusting 10 18.3
2019-Sep-20 12:28 140 3 gusting 10 18.3
2019-Sep-20 12:24 117 3 gusting 10 18.3
2019-Sep-20 12:20 128 3 gusting 10 18.3
2019-Sep-20 12:12 107 2 gusting 9 18.3
2019-Sep-20 12:08 106 3 gusting 10 18.3
2019-Sep-20 12:04 120 3 gusting 10 17.8
2019-Sep-20 12:00 118 3 gusting 11 17.8
2019-Sep-20 11:52 109 3 gusting 12 17.8
2019-Sep-20 11:48 102 2 gusting 8 17.8
2019-Sep-20 11:44 099 2 gusting 8 17.8
2019-Sep-20 11:40 128 2 gusting 6 17.8
2019-Sep-20 11:32 110 3 gusting 11 17.2
2019-Sep-20 11:28 104 2 gusting 13 17.2
2019-Sep-20 11:24 094 2 gusting 7 17.2
2019-Sep-20 11:20 129 1 gusting 5 17.2
2019-Sep-20 11:12 124 2 gusting 7 17.2
2019-Sep-20 11:08 124 2 gusting 9 17.2
2019-Sep-20 11:04 122 1 gusting 6 17.2
2019-Sep-20 11:00 136 1 gusting 6 17.2
2019-Sep-20 10:52 132 1 gusting 7 16.7
2019-Sep-20 10:48 142 2 gusting 6 16.7
2019-Sep-20 10:44 115 2 gusting 7 16.7
2019-Sep-20 10:40 131 2 gusting 10 16.7
2019-Sep-20 10:32 129 2 gusting 9 16.7
2019-Sep-20 10:28 127 2 gusting 11 16.7
2019-Sep-20 10:24 130 3 gusting 9 16.7
2019-Sep-20 10:20 123 3 gusting 10 16.7
2019-Sep-20 10:12 124 2 gusting 9 16.7
2019-Sep-20 10:08 121 2 gusting 10 16.7
2019-Sep-20 10:04 132 2 gusting 6 16.7
2019-Sep-20 10:00 130 2 gusting 10 16.7
2019-Sep-20 09:52 130 3 gusting 11 16.7
2019-Sep-20 09:48 136 2 gusting 13 16.7
2019-Sep-20 09:44 121 2 gusting 11 16.7
2019-Sep-20 09:40 125 2 gusting 6 16.7
2019-Sep-20 09:32 111 2 gusting 12 16.7
2019-Sep-20 09:28 118 1 gusting 10 16.7
2019-Sep-20 09:24 109 1 gusting 6 16.7
2019-Sep-20 09:20 117 1 gusting 9 16.7
2019-Sep-20 09:12 138 2 gusting 9 16.7
2019-Sep-20 09:08 136 2 gusting 7 16.7
2019-Sep-20 09:04 103 2 gusting 7 16.1
2019-Sep-20 09:00 132 2 gusting 8 16.1